Total_Precipitation_Accumulation
0.11 0.02 0.01 0.00 0.00 0.00 0.00 0.00 0.00 0.00 0.00 0.00 0.00 0.00 0.00 0.00 0.01 0.00 0.01 0.00 0.00 0.00 0.00 0.00 0.00 0.00 0.00 0.00 0.00 0.00 0.00 0.00 0.00 0.00 0.00 0.00 0.00 0.00 0.01 0.02 0.00 0.00 0.00 0.00 0.00 0.00 0.00 0.00 0.01 0.01 0.01 0.02 0.02 0.01 0.02 0.01 0.01 0.02 0.01 0.01 0.03 0.03 0.02 0.02 0.07 0.02 0.00 0.00 0.01 0.01 0.01 0.01 0.01 0.00 0.01 0.02 0.01 0.02 0.00 0.00 0.00 0.00 0.00 0.00 0.02
0.02 0.04 0.01 0.00 0.01 0.00 0.00 0.00 0.00 0.00 0.00 0.00 0.01 0.01 0.01 0.00 0.00 0.00 0.00 0.00 0.00 0.00 0.00 0.00 0.00 0.00 0.00 0.00 0.00 0.00 0.00 0.00 0.00 0.00 0.00 0.00 0.00 0.00 0.01 0.00 0.01 0.00 0.00 0.00 0.00 0.00 0.00 0.00 0.01 0.01 0.01 0.03 0.02 0.02 0.04 0.01 0.02 0.02 0.01 0.01 0.02 0.02 0.02 0.04 0.02 0.04 0.01 0.01 0.00 0.02 0.02 0.02 0.02 0.01 0.02 0.02 0.03 0.02 0.01 0.00 0.02 0.01 0.01 0.00 0.02
0.16 0.12 0.03 0.02 0.00 0.02 0.00 0.00 0.00 0.00 0.00 0.00 0.01 0.01 0.00 0.01 0.00 0.00 0.00 0.00 0.00 0.00 0.00 0.00 0.00 0.00 0.00 0.00 0.00 0.00 0.01 0.01 0.00 0.00 0.00 0.00 0.00 0.00 0.00 0.00 0.00 0.00 0.00 0.00 0.00 0.00 0.00 0.00 0.01 0.01 0.00 0.02 0.01 0.01 0.00 0.00 0.01 0.01 0.01 0.02 0.02 0.02 0.05 0.03 0.05 0.06 0.05 0.02 0.01 0.01 0.01 0.02 0.01 0.03 0.01 0.01 0.01 0.01 0.03 0.02 0.01 0.02 0.00 0.00 0.01
0.68 0.43 0.39 0.12 0.02 0.01 0.05 0.03 0.00 0.00 0.00 0.03 0.03 0.10 0.04 0.01 0.01 0.00 0.00 0.00 0.00 0.00 0.00 0.00 0.00 0.00 0.01 0.02 0.03 0.03 0.02 0.02 0.02 0.00 0.00 0.00 0.00 0.00 0.00 0.00 0.00 0.00 0.00 0.00 0.00 0.00 0.00 0.00 0.00 0.00 0.00 0.00 0.00 0.00 0.01 0.02 0.03 0.01 0.01 0.02 0.02 0.01 0.02 0.03 0.03 0.02 0.06 0.09 0.03 0.02 0.00 0.01 0.01 0.01 0.01 0.01 0.01 0.02 0.02 0.02 0.00 0.00 0.00 0.01 0.01
0.88 0.41 0.30 0.34 0.26 0.03 0.08 0.06 0.02 0.01 0.03 0.08 0.05 0.05 0.04 0.05 0.03 0.01 0.00 0.01 0.03 0.06 0.04 0.04 0.08 0.11 0.12 0.09 0.07 0.06 0.04 0.02 0.00 0.00 0.00 0.00 0.00 0.00 0.00 0.00 0.00 0.00 0.00 0.00 0.00 0.00 0.00 0.00 0.00 0.00 0.00 0.00 0.01 0.01 0.01 0.02 0.01 0.01 0.01 0.01 0.01 0.04 0.06 0.02 0.02 0.08 0.07 0.13 0.06 0.03 0.02 0.01 0.01 0.01 0.01 0.03 0.02 0.01 0.01 0.01 0.01 0.01 0.00 0.01 0.02
1.16 1.19 0.78 0.33 0.60 0.35 0.08 0.07 0.07 0.13 0.08 0.03 0.06 0.02 0.01 0.00 0.00 0.01 0.02 0.05 0.06 0.07 0.10 0.16 0.19 0.18 0.14 0.11 0.08 0.06 0.02 0.00 0.00 0.00 0.00 0.00 0.00 0.00 0.00 0.00 0.00 0.00 0.00 0.00 0.00 0.00 0.00 0.00 0.00 0.00 0.00 0.00 0.00 0.00 0.00 0.01 0.02 0.01 0.01 0.01 0.06 0.21 0.11 0.10 0.17 0.29 0.10 0.07 0.18 0.11 0.04 0.04 0.03 0.01 0.01 0.02 0.04 0.04 0.01 0.01 0.01 0.01 0.02 0.02 0.02
0.44 0.54 0.25 0.27 0.33 0.25 0.36 0.37 0.27 0.23 0.07 0.07 0.16 0.22 0.12 0.01 0.02 0.03 0.04 0.11 0.22 0.20 0.24 0.23 0.20 0.17 0.13 0.10 0.05 0.01 0.00 0.00 0.00 0.00 0.00 0.00 0.00 0.00 0.00 0.00 0.00 0.00 0.00 0.00 0.00 0.00 0.00 0.01 0.00 0.00 0.00 0.00 0.00 0.01 0.02 0.02 0.01 0.02 0.03 0.02 0.03 0.13 0.08 0.04 0.03 0.04 0.15 0.12 0.06 0.10 0.06 0.03 0.02 0.06 0.05 0.02 0.04 0.02 0.04 0.05 0.08 0.03 0.02 0.04 0.03
0.13 0.21 0.17 0.26 0.17 0.22 0.23 0.70 0.74 0.30 0.25 0.19 0.21 0.13 0.23 0.14 0.12 0.15 0.29 0.30 0.29 0.31 0.28 0.26 0.22 0.15 0.07 0.02 0.00 0.01 0.00 0.00 0.00 0.00 0.00 0.00 0.00 0.00 0.00 0.00 0.00 0.00 0.01 0.01 0.00 0.00 0.00 0.00 0.01 0.00 0.00 0.01 0.01 0.00 0.02 0.01 0.01 0.01 0.01 0.01 0.01 0.02 0.07 0.04 0.03 0.04 0.03 0.03 0.03 0.09 0.05 0.05 0.03 0.02 0.02 0.02 0.06 0.05 0.05 0.07 0.06 0.05 0.05 0.08 0.17
0.35 0.59 0.59 0.38 0.34 0.38 0.32 0.55 0.91 0.54 0.19 0.42 0.34 0.21 0.36 0.30 0.35 0.37 0.26 0.38 0.41 0.33 0.22 0.14 0.07 0.04 0.02 0.01 0.00 0.00 0.00 0.00 0.00 0.00 0.00 0.00 0.00 0.00 0.00 0.00 0.00 0.00 0.02 0.03 0.01 0.01 0.00 0.00 0.01 0.02 0.02 0.01 0.02 0.02 0.01 0.01 0.01 0.00 0.03 0.01 0.05 0.05 0.02 0.08 0.03 0.02 0.07 0.04 0.03 0.07 0.06 0.05 0.04 0.03 0.04 0.07 0.05 0.06 0.05 0.04 0.04 0.03 0.03 0.04 0.05
0.49 0.23 0.28 0.36 0.19 0.15 0.17 0.40 0.56 0.81 0.53 1.45 1.84 0.57 0.60 0.70 0.68 0.54 0.37 0.35 0.25 0.16 0.11 0.07 0.05 0.03 0.01 0.01 0.01 0.00 0.00 0.00 0.00 0.00 0.00 0.00 0.00 0.00 0.00 0.00 0.00 0.00 0.00 0.00 0.01 0.00 0.00 0.02 0.20 0.09 0.08 0.06 0.06 0.04 0.02 0.03 0.08 0.10 0.03 0.03 0.02 0.02 0.02 0.02 0.02 0.02 0.03 0.04 0.07 0.06 0.09 0.16 0.04 0.03 0.04 0.03 0.02 0.03 0.04 0.07 0.09 0.07 0.03 0.10 0.03
0.68 0.48 0.56 1.33 0.65 0.63 0.54 0.26 0.30 0.36 1.16 1.25 1.26 1.39 0.80 0.38 0.28 0.30 0.26 0.17 0.13 0.13 0.11 0.10 0.07 0.04 0.02 0.01 0.01 0.00 0.00 0.00 0.00 0.00 0.00 0.00 0.00 0.00 0.00 0.00 0.00 0.00 0.01 0.00 0.01 0.00 0.00 0.00 0.01 0.02 0.02 0.05 0.09 0.04 0.05 0.05 0.03 0.03 0.03 0.02 0.01 0.01 0.01 0.02 0.02 0.02 0.03 0.03 0.06 0.04 0.04 0.07 0.04 0.02 0.02 0.03 0.03 0.08 0.08 0.06 0.09 0.08 0.10 0.13 0.10
1.10 0.88 1.13 1.72 1.41 1.06 0.88 1.09 0.70 0.31 0.56 1.27 1.30 1.08 0.78 0.47 0.26 0.12 0.09 0.09 0.11 0.10 0.12 0.12 0.09 0.06 0.04 0.02 0.01 0.00 0.00 0.00 0.00 0.00 0.00 0.00 0.00 0.00 0.00 0.00 0.00 0.00 0.00 0.00 0.00 0.01 0.01 0.04 0.10 0.17 0.16 0.14 0.13 0.08 0.06 0.03 0.02 0.01 0.01 0.01 0.03 0.01 0.00 0.00 0.01 0.02 0.02 0.04 0.04 0.07 0.04 0.05 0.04 0.04 0.05 0.07 0.07 0.07 0.05 0.10 0.06 0.08 0.13 0.16 0.13
1.51 1.02 1.35 1.53 1.43 0.88 0.74 0.23 0.40 0.60 1.17 1.48 0.87 1.15 0.56 0.54 0.60 0.49 0.17 0.22 0.11 0.10 0.13 0.14 0.12 0.09 0.05 0.03 0.02 0.01 0.01 0.00 0.00 0.00 0.00 0.00 0.00 0.00 0.00 0.00 0.00 0.00 0.00 0.00 0.00 0.01 0.06 0.08 0.14 0.28 0.11 0.05 0.07 0.04 0.02 0.01 0.01 0.01 0.01 0.01 0.00 0.00 0.00 0.00 0.00 0.03 0.08 0.05 0.04 0.03 0.03 0.04 0.13 0.15 0.06 0.07 0.04 0.13 0.28 0.52 0.48 0.19 0.11 0.12 0.10
1.89 1.98 1.72 1.93 1.44 0.75 0.42 0.46 0.62 1.40 1.57 1.82 1.08 0.30 0.42 0.19 0.41 0.65 0.43 0.21 0.30 0.20 0.16 0.15 0.13 0.11 0.08 0.06 0.05 0.03 0.02 0.01 0.01 0.00 0.00 0.01 0.01 0.01 0.00 0.01 0.00 0.01 0.01 0.02 0.01 0.00 0.02 0.05 0.45 0.49 0.08 0.12 0.04 0.02 0.03 0.02 0.06 0.06 0.04 0.05 0.04 0.02 0.01 0.00 0.00 0.00 0.01 0.02 0.08 0.07 0.03 0.47 0.28 0.11 0.09 0.05 0.09 0.17 0.39 0.58 0.72 0.56 0.20 0.09 0.05
2.27 1.47 0.99 1.11 0.86 0.30 0.32 0.22 0.53 1.14 1.41 1.27 0.79 0.60 0.27 0.33 0.28 0.45 0.47 0.67 0.69 0.50 0.23 0.19 0.07 0.06 0.05 0.05 0.05 0.05 0.04 0.02 0.01 0.01 0.00 0.00 0.00 0.00 0.00 0.01 0.02 0.02 0.02 0.02 0.02 0.02 0.14 0.47 0.42 0.15 0.03 0.07 0.04 0.01 0.01 0.00 0.00 0.02 0.04 0.03 0.04 0.01 0.03 0.04 0.03 0.14 0.06 0.07 0.06 0.04 0.03 0.02 0.05 0.06 0.04 0.03 0.03 0.12 0.61 0.76 0.82 0.40 0.25 0.20 0.07
0.62 0.68 0.94 0.96 0.77 0.47 0.32 0.18 0.23 1.18 0.85 0.77 0.44 0.21 0.27 0.43 0.56 0.99 1.02 0.47 0.29 0.23 0.09 0.05 0.10 0.22 0.16 0.15 0.12 0.08 0.05 0.03 0.01 0.01 0.01 0.02 0.01 0.02 0.02 0.01 0.02 0.01 0.02 0.01 0.02 0.07 0.12 0.37 0.07 0.09 0.10 0.09 0.05 0.03 0.12 0.25 0.28 0.26 0.05 0.05 0.02 0.01 0.02 0.01 0.00 0.00 0.01 0.01 0.01 0.02 0.02 0.01 0.01 0.01 0.03 0.02 0.04 0.44 1.04 0.83 0.37 0.31 0.58 0.54 0.34
0.37 0.31 0.28 0.25 0.19 0.15 0.18 0.38 0.28 0.31 0.65 0.78 0.57 0.43 0.59 0.80 0.80 1.29 0.82 0.13 0.17 0.05 0.04 0.06 0.05 0.11 0.09 0.04 0.03 0.03 0.05 0.05 0.06 0.04 0.04 0.02 0.02 0.02 0.01 0.01 0.04 0.03 0.05 0.08 0.04 0.12 0.24 0.20 0.10 0.15 0.05 0.04 0.07 0.14 0.21 0.12 0.04 0.03 0.02 0.03 0.03 0.04 0.03 0.03 0.03 0.01 0.00 0.00 0.00 0.00 0.00 0.00 0.00 0.00 0.01 0.00 0.26 0.96 1.68 1.09 0.10 0.67 0.81 1.05 0.52
0.77 0.42 0.35 0.32 0.16 0.16 0.08 0.07 0.06 0.05 0.08 0.59 0.82 0.86 0.67 0.77 0.97 0.74 0.23 0.21 0.04 0.05 0.05 0.05 0.06 0.06 0.03 0.04 0.04 0.06 0.06 0.03 0.19 0.29 0.34 0.02 0.02 0.03 0.03 0.03 0.08 0.06 0.08 0.30 0.30 0.25 0.05 0.05 0.03 0.06 0.18 0.14 0.03 0.12 0.03 0.22 0.26 0.03 0.02 0.02 0.01 0.02 0.01 0.01 0.01 0.02 0.01 0.00 0.00 0.00 0.00 0.00 0.01 0.01 0.02 0.02 1.57 1.75 1.48 0.43 0.17 0.70 1.26 1.01 0.60
0.10 0.31 0.09 0.14 0.20 0.17 0.08 0.05 0.06 0.06 0.08 0.21 0.65 1.32 0.87 0.50 0.37 0.48 0.15 0.10 0.06 0.06 0.04 0.06 0.08 0.04 0.02 0.07 0.04 0.05 0.06 0.17 0.30 0.38 0.71 0.83 0.98 0.86 0.21 0.11 0.09 0.27 0.16 0.29 0.23 0.07 0.12 0.06 0.14 0.17 0.12 0.06 0.10 0.17 0.06 0.04 0.01 0.01 0.01 0.01 0.01 0.01 0.01 0.01 0.01 0.01 0.01 0.01 0.01 0.01 0.01 0.02 0.07 0.05 0.04 0.01 0.01 0.55 0.82 0.78 0.66 1.48 1.59 0.93 0.68
0.15 0.20 0.20 0.06 0.11 0.18 0.23 0.16 0.04 0.05 0.07 0.08 0.55 1.15 1.55 0.86 0.30 0.21 0.16 0.35 0.11 0.09 0.05 0.11 0.08 0.10 0.07 0.13 0.07 0.02 0.06 0.22 0.60 0.26 0.62 1.01 0.47 0.57 0.59 0.19 0.09 0.05 0.05 0.11 0.18 0.16 0.05 0.09 0.05 0.03 0.01 0.01 0.00 0.00 0.00 0.03 0.00 0.00 0.02 0.01 0.02 0.07 0.02 0.03 0.02 0.20 0.05 0.02 0.03 0.02 0.02 0.03 0.03 0.04 0.01 0.01 0.00 0.01 0.01 0.46 0.96 1.45 1.33 1.18 0.59
0.16 0.45 0.51 0.05 0.08 0.19 0.13 0.20 0.22 0.13 0.11 0.17 0.39 0.26 0.30 0.11 0.14 0.15 0.22 0.26 0.18 0.12 0.09 0.15 0.24 0.16 0.19 0.14 0.16 0.08 0.35 0.52 0.53 0.53 0.47 0.43 0.58 0.88 0.77 0.53 0.12 0.05 0.04 0.06 0.03 0.11 0.14 0.07 0.06 0.01 0.00 0.00 0.00 0.01 0.01 0.00 0.00 0.01 0.03 0.02 0.03 0.42 0.78 0.72 0.56 0.56 0.15 0.02 0.01 0.03 0.05 0.02 0.00 0.00 0.00 0.00 0.01 0.00 0.01 0.06 0.64 1.09 1.22 1.03 0.72
0.02 0.10 0.38 0.38 0.43 0.48 0.85 0.61 0.43 0.37 0.53 0.71 0.49 0.06 0.05 0.06 0.04 0.22 0.35 0.37 0.47 0.21 0.16 0.16 0.15 0.28 0.29 0.21 0.13 0.31 0.42 0.65 1.37 0.67 0.38 0.78 0.72 0.54 0.56 0.19 0.15 0.05 0.07 0.03 0.03 0.02 0.02 0.03 0.02 0.01 0.00 0.00 0.01 0.01 0.01 0.01 0.00 0.04 0.02 0.02 0.05 1.23 2.63 2.43 1.49 0.80 0.26 0.08 0.07 0.04 0.02 0.01 0.02 0.01 0.00 0.00 0.00 0.00 0.01 0.08 0.21 0.77 1.18 0.95 0.62
0.00 0.04 0.13 0.31 0.24 0.09 0.25 0.42 1.23 2.28 1.91 0.37 0.13 0.11 0.04 0.07 0.28 0.47 0.30 0.35 0.21 0.21 0.12 0.15 0.31 0.49 0.52 0.34 0.13 0.36 0.87 0.89 0.75 1.43 0.45 0.03 0.04 0.12 0.07 0.13 0.26 0.45 0.61 0.62 0.06 0.13 0.20 0.08 0.08 0.01 0.01 0.01 0.01 0.01 0.01 0.01 0.01 0.01 0.01 0.01 0.03 1.28 2.73 4.02 3.53 2.36 0.83 0.25 0.07 0.04 0.02 0.00 0.00 0.00 0.00 0.00 0.01 0.00 0.02 0.34 0.59 1.08 0.99 0.68 0.35
0.00 0.00 0.02 0.05 0.04 0.16 0.19 0.81 1.82 2.11 0.76 0.42 0.23 0.21 0.16 0.11 0.28 1.03 0.28 0.18 0.26 0.24 0.27 0.37 0.42 0.45 0.38 0.43 0.63 0.84 1.32 1.23 1.18 1.25 0.61 0.23 0.11 0.16 0.35 0.22 0.30 0.78 0.42 0.20 0.51 0.44 0.28 0.27 0.04 0.02 0.01 0.02 0.02 0.01 0.01 0.01 0.01 0.01 0.02 0.02 0.09 1.26 3.14 3.33 5.63 4.72 2.19 0.47 0.09 0.04 0.02 0.00 0.00 0.00 0.00 0.00 0.00 0.01 0.07 0.46 0.67 1.00 0.60 0.57 0.49
0.00 0.03 0.00 0.01 0.02 0.02 0.01 0.20 1.61 1.22 0.48 0.41 0.36 0.24 0.29 0.59 0.70 0.73 0.14 0.14 0.19 0.14 0.20 0.32 0.39 0.26 0.26 0.43 1.12 1.62 1.00 0.97 0.81 0.99 0.74 0.19 0.16 0.16 0.15 0.08 0.04 0.09 0.41 0.13 0.12 0.22 0.34 0.06 0.03 0.04 0.05 0.04 0.02 0.02 0.02 0.02 0.02 0.02 0.02 0.03 0.09 0.38 2.10 2.79 2.81 4.57 1.76 0.16 0.07 0.03 0.01 0.04 0.00 0.01 0.01 0.01 0.03 0.05 0.32 0.52 0.86 0.67 0.44 0.47 0.32
0.01 0.02 0.02 0.00 0.00 0.00 0.02 0.04 0.08 0.30 0.07 0.20 0.20 0.27 0.38 0.45 0.47 0.56 0.23 0.13 0.14 0.09 0.06 0.10 0.25 0.71 1.11 1.11 0.78 0.61 0.85 1.16 0.98 0.71 0.59 0.48 0.47 0.21 0.12 0.11 0.15 0.15 0.30 0.19 0.08 0.14 0.02 0.01 0.02 0.03 0.04 0.04 0.02 0.02 0.02 0.02 0.02 0.02 0.02 0.05 0.13 0.63 1.95 2.33 1.73 2.45 1.62 0.15 0.06 0.05 0.23 0.79 0.05 0.03 0.01 0.04 0.11 0.35 0.68 0.73 0.62 0.39 0.31 0.16 0.08
0.01 0.02 0.02 0.01 0.05 0.01 0.02 0.01 0.02 0.00 0.00 0.00 0.03 0.23 0.56 0.38 0.42 0.64 0.97 0.42 0.48 0.62 0.66 0.90 0.71 0.32 0.32 0.36 0.83 0.74 1.00 0.65 0.54 0.21 0.94 0.87 0.78 0.30 0.13 0.50 0.57 0.78 0.54 0.54 0.60 0.67 0.14 0.16 0.18 0.08 0.06 0.05 0.04 0.02 0.01 0.02 0.05 0.03 0.14 0.16 0.16 0.30 0.46 0.76 0.73 1.71 0.62 0.16 0.07 0.08 0.77 0.61 0.41 0.08 0.07 0.26 0.59 0.87 0.88 0.47 0.11 0.06 0.04 0.10 0.13
0.40 0.43 0.55 0.62 0.70 0.77 1.02 0.84 0.19 0.00 0.00 0.01 0.05 0.07 0.43 0.76 0.74 0.59 0.36 0.34 0.34 0.23 0.26 0.23 0.16 0.15 0.23 0.69 1.43 1.60 0.82 0.38 0.54 0.64 0.61 0.83 0.76 0.81 0.60 0.50 0.56 0.76 0.52 0.31 0.37 0.44 0.93 0.72 0.41 0.77 0.64 0.19 0.10 0.05 0.05 0.06 0.10 0.05 0.07 0.06 0.12 0.09 0.09 0.08 0.66 0.95 0.28 0.16 0.09 0.49 0.89 0.80 0.35 0.10 0.33 0.73 0.55 0.28 0.10 0.04 0.05 0.04 0.11 0.26 0.39
1.02 0.98 0.76 0.83 0.63 0.68 0.49 0.16 0.10 0.35 0.36 0.93 1.08 1.03 0.40 0.30 0.37 0.45 0.29 0.20 0.18 0.24 0.23 0.34 0.36 0.50 0.98 1.17 1.33 0.35 0.17 0.23 0.44 0.34 0.64 0.75 0.88 0.78 0.49 0.53 0.38 0.37 0.61 0.66 0.54 0.67 1.69 1.18 0.96 0.76 0.62 0.12 0.16 0.16 0.08 0.04 0.02 0.02 0.04 0.06 0.04 0.08 0.11 0.24 0.19 0.28 0.19 0.67 0.36 0.66 0.61 0.16 0.26 0.40 0.81 0.83 0.25 0.06 0.05 0.08 0.16 0.55 0.33 0.42 0.27
0.41 0.40 0.40 0.38 0.21 0.32 0.12 0.08 0.08 0.08 0.32 0.55 0.63 0.24 0.02 0.03 0.08 0.10 0.13 0.10 0.09 0.07 0.04 0.16 0.28 0.35 0.48 0.20 0.20 0.20 0.25 0.57 0.51 0.34 0.23 0.43 0.49 0.66 0.61 0.71 0.58 0.79 0.81 1.36 1.70 2.70 1.65 0.77 0.59 0.41 0.11 0.22 0.26 0.06 0.05 0.05 0.10 0.09 0.11 0.06 0.10 0.24 0.21 0.14 0.13 0.08 0.21 0.40 0.56 0.99 1.00 0.97 0.75 0.69 0.35 0.28 0.11 0.14 0.13 0.18 0.26 0.43 0.53 0.51 0.31
0.57 0.53 0.47 0.31 0.18 0.21 0.14 0.11 0.09 0.08 0.09 0.03 0.12 0.15 0.08 0.04 0.05 0.06 0.09 0.10 0.20 0.49 0.76 0.84 0.78 0.75 0.73 0.84 0.66 0.59 0.45 0.83 0.58 0.22 0.37 0.55 0.37 0.46 0.73 0.74 1.53 1.10 2.22 3.77 2.28 1.18 0.67 0.55 0.30 0.35 0.40 0.50 0.29 0.08 0.10 0.12 0.12 0.16 0.20 0.12 0.15 0.14 0.10 0.11 0.13 0.23 0.35 0.37 0.89 1.21 1.13 0.77 0.57 0.43 0.51 0.54 0.28 0.25 0.47 0.30 0.29 0.25 0.37 0.37 0.33
1.31 1.21 1.36 1.36 0.97 0.91 1.13 1.06 1.00 0.62 1.01 1.28 1.13 1.22 1.07 0.88 0.44 0.34 0.67 0.75 0.46 0.35 0.39 0.57 0.46 0.64 0.57 0.59 0.77 1.34 1.18 1.39 1.58 1.38 1.57 1.22 1.02 0.57 0.24 0.84 2.05 2.14 2.40 2.23 1.45 0.79 0.61 0.46 0.37 0.53 0.54 0.48 0.42 0.21 0.19 0.59 0.44 0.54 0.26 0.14 0.18 0.11 0.06 0.23 0.45 0.85 0.63 0.32 1.03 0.94 0.62 0.38 0.55 0.87 1.31 1.35 1.14 1.01 0.76 0.40 0.53 0.45 0.31 0.46 0.48
0.68 0.73 1.07 1.09 1.52 1.44 1.10 1.12 1.37 1.88 1.74 1.41 1.54 1.38 0.73 0.52 0.42 0.58 1.02 0.85 0.99 0.95 0.79 0.90 0.97 1.13 1.42 0.85 0.80 1.05 0.91 0.59 0.47 0.24 0.23 0.10 0.09 0.12 0.26 1.10 1.93 2.27 2.44 2.30 0.92 0.83 1.14 1.15 1.21 0.73 0.74 0.57 0.75 0.85 0.57 0.40 0.27 0.30 0.13 0.19 0.12 0.25 0.29 0.38 1.21 0.73 0.26 0.50 0.34 0.33 0.53 0.78 1.35 1.52 1.50 1.01 0.79 0.61 0.50 0.27 0.26 0.33 0.28 0.52 0.52
0.93 0.99 1.21 0.93 1.28 1.93 2.30 2.23 2.02 1.56 1.06 1.77 1.59 1.04 1.18 1.20 0.80 0.52 0.47 0.72 0.95 0.74 0.60 1.01 0.95 1.15 1.37 1.00 0.66 1.24 0.87 0.65 0.69 1.13 2.12 2.18 2.17 2.01 1.71 1.80 2.57 4.03 4.02 3.68 3.25 2.94 2.69 2.23 2.12 1.52 1.42 1.18 1.37 1.59 0.93 0.39 0.09 0.13 0.14 0.32 0.11 0.19 0.22 1.04 0.98 0.65 0.35 0.33 0.33 0.58 0.99 1.12 1.33 1.45 1.28 1.04 0.99 0.79 0.68 0.53 0.31 0.66 0.54 0.31 0.42
1.08 1.05 0.81 0.98 1.62 1.61 1.37 1.53 1.86 2.96 3.12 2.28 1.70 1.74 1.45 1.22 2.05 2.13 0.85 0.51 0.92 1.30 1.31 0.76 0.72 0.38 0.52 0.65 0.97 1.18 0.78 0.41 0.24 0.17 0.26 0.31 0.47 0.52 0.97 1.60 1.78 1.44 2.19 2.38 2.82 2.69 2.07 1.99 1.78 1.68 1.41 0.63 0.38 0.25 0.28 0.64 0.80 0.69 0.40 0.43 0.37 0.45 0.65 0.65 0.88 1.28 0.97 1.05 0.91 1.02 1.20 1.09 1.17 0.87 0.77 0.75 0.91 0.88 0.64 0.63 0.65 0.60 0.58 0.43 0.42
0.98 1.08 1.31 1.29 1.37 1.56 1.45 1.99 2.17 2.26 2.65 2.08 1.85 2.74 2.81 2.35 1.75 1.50 1.59 1.62 2.27 1.76 1.65 1.52 1.61 1.54 1.56 1.45 1.28 1.15 1.55 1.71 1.25 0.56 1.16 1.36 1.08 1.43 2.51 3.36 3.35 3.50 2.42 1.59 1.38 1.06 0.51 0.46 0.38 0.45 0.43 0.76 0.79 1.04 1.20 1.25 0.86 0.76 0.53 0.65 0.69 0.57 0.93 1.20 1.53 1.55 0.67 0.68 0.78 0.84 0.90 0.93 0.73 0.84 0.95 0.86 0.97 0.79 0.83 0.59 0.60 0.72 0.96 0.89 0.83
0.59 0.75 1.05 1.40 1.45 1.29 1.69 2.00 1.79 1.93 1.63 1.96 2.18 3.04 2.94 2.92 2.61 2.03 2.05 1.67 1.87 1.55 1.18 1.10 1.17 1.40 1.27 1.28 0.72 0.75 0.87 1.23 2.14 1.98 2.04 1.88 1.60 2.97 2.62 0.90 0.88 1.36 0.88 0.91 0.79 0.71 0.40 0.35 0.37 0.47 0.52 1.28 1.53 1.30 1.18 1.47 1.38 1.26 1.09 1.26 1.00 1.59 3.11 1.38 1.75 1.56 1.04 0.83 0.73 0.85 1.02 0.87 1.06 1.28 1.00 1.09 1.01 0.87 0.75 0.86 0.78 0.86 0.94 0.71 0.69
0.73 0.82 0.76 0.39 0.79 0.89 0.92 1.51 2.10 1.37 1.72 1.41 1.50 1.60 1.37 1.20 1.06 1.74 1.70 1.60 1.85 2.06 1.30 1.09 1.59 1.91 1.33 1.16 1.40 1.34 0.84 0.84 2.24 3.91 3.20 2.30 1.82 1.98 1.97 1.73 1.12 0.64 0.51 0.55 0.39 0.25 0.31 0.42 0.34 0.59 0.64 1.49 1.42 1.22 1.13 1.17 1.32 1.60 1.75 1.96 3.26 5.72 2.24 1.58 1.89 2.35 1.37 1.12 1.00 1.40 1.32 1.19 1.09 1.08 1.19 1.20 1.19 1.07 1.01 1.26 1.39 1.28 1.21 0.95 1.04
0.60 0.76 0.90 0.89 1.09 1.10 1.00 1.38 1.55 2.04 1.96 1.99 1.76 1.76 1.28 1.07 1.20 1.31 1.20 1.23 1.83 2.43 2.80 2.42 1.92 1.59 1.57 1.30 1.00 2.00 1.98 1.96 1.50 0.82 0.90 1.08 1.01 1.01 1.22 1.37 1.26 1.15 1.06 0.97 0.93 1.00 1.25 1.37 1.07 1.36 1.40 1.63 1.65 2.10 1.58 1.54 1.59 2.31 2.41 2.68 4.41 4.30 1.93 1.50 1.30 1.93 1.27 1.11 1.43 1.55 1.14 1.00 0.92 1.25 1.56 1.55 1.44 1.42 1.56 1.52 1.36 1.30 1.20 1.18 1.27
0.87 1.44 1.69 0.86 0.89 1.55 1.46 1.67 1.20 1.96 2.22 1.10 0.74 0.61 0.75 1.18 1.50 1.84 2.19 2.38 1.92 1.70 1.55 1.75 2.56 2.99 2.61 2.52 2.45 1.90 1.54 2.24 2.19 2.58 1.86 0.83 0.65 0.91 0.81 0.78 1.18 1.05 2.15 1.18 1.47 1.48 1.11 1.16 1.54 1.50 1.40 2.47 2.01 1.81 1.86 1.68 1.42 1.47 2.17 2.65 5.10 3.05 1.47 1.90 1.95 2.32 2.28 1.32 1.06 0.84 0.63 0.65 0.97 1.82 2.38 2.76 2.63 1.88 1.41 1.46 1.56 1.39 1.44 1.32 1.75
1.61 1.70 0.95 0.61 0.66 0.96 1.32 1.59 1.13 0.48 0.43 0.34 0.24 0.19 0.27 0.24 0.36 0.40 1.21 1.77 1.86 1.91 1.91 1.92 1.43 1.35 1.44 1.72 1.98 2.29 3.23 2.96 2.48 1.62 1.87 2.37 1.53 1.13 1.02 1.16 0.97 2.70 1.51 1.27 1.25 1.63 1.34 1.13 1.18 1.28 1.32 2.44 3.28 2.85 2.18 1.64 1.58 1.67 2.45 3.57 4.92 2.69 1.82 1.73 1.23 0.93 0.85 0.91 1.22 1.33 1.41 1.44 2.07 2.48 1.91 2.18 2.73 2.51 2.18 2.02 1.72 1.79 2.68 3.50 3.74
2.61 2.02 1.53 1.10 1.08 1.26 1.64 1.25 0.59 0.42 0.46 0.55 0.69 0.41 0.25 0.39 0.55 0.31 0.24 0.31 0.35 0.38 0.67 0.69 0.78 0.93 1.00 1.13 1.30 1.57 3.88 2.32 2.62 2.11 1.43 1.54 2.04 2.07 1.91 1.23 1.05 1.10 1.59 1.90 1.58 1.29 1.15 1.54 1.42 1.17 1.22 2.45 3.15 3.10 2.18 1.15 1.12 1.56 1.92 3.06 4.13 2.63 1.78 1.26 1.36 2.01 2.03 1.56 1.08 1.30 1.65 1.89 1.91 2.72 3.88 2.65 2.29 2.38 2.34 2.84 3.14 3.49 3.11 3.01 2.79
1.66 2.38 2.49 2.59 2.74 2.89 1.80 2.20 1.81 2.31 1.16 1.16 1.17 0.63 0.59 1.52 1.64 2.02 1.59 1.36 1.08 0.47 0.31 0.38 0.51 0.65 0.68 0.66 0.66 0.77 0.97 1.19 1.42 1.57 1.61 1.48 1.75 2.10 2.45 2.11 1.24 1.13 1.41 1.48 1.22 1.21 1.00 0.99 1.28 1.21 1.32 1.28 1.70 3.05 3.89 2.78 1.69 1.44 2.04 4.06 3.09 1.64 1.87 1.86 1.71 1.35 1.73 2.31 2.46 2.43 2.22 2.07 2.18 2.69 3.24 4.20 3.51 2.39 2.82 3.42 3.00 2.53 3.11 3.03 2.96
0.61 1.77 2.31 1.75 1.65 2.03 2.74 3.20 3.13 2.62 1.47 1.49 1.33 1.98 2.49 1.89 1.17 1.12 1.59 1.44 0.99 1.09 0.79 0.40 0.65 0.28 0.37 0.38 0.39 0.43 0.56 0.74 0.92 1.16 1.32 1.20 1.30 1.42 1.54 2.06 1.97 1.70 1.77 2.32 2.21 2.27 2.39 1.77 1.23 1.68 1.88 1.68 1.80 2.71 2.95 2.96 4.33 4.01 2.47 2.19 2.43 2.44 1.71 1.94 2.42 2.14 2.36 2.26 1.80 2.51 3.05 3.49 3.34 2.93 2.60 2.57 2.69 3.68 2.78 2.37 2.24 2.21 1.61 1.71 1.91
1.33 1.32 1.72 1.69 1.51 1.46 2.07 2.11 1.16 1.64 1.75 1.31 1.28 1.23 1.91 2.54 2.12 1.07 0.67 0.29 0.18 0.11 0.10 0.16 0.16 0.37 0.11 0.14 0.19 0.25 0.60 1.29 1.71 1.59 1.76 1.03 1.11 1.11 1.16 1.31 1.31 1.12 1.04 1.00 1.04 1.09 1.32 1.93 2.06 1.77 1.84 2.11 2.30 2.54 3.72 2.97 2.60 3.16 3.62 3.19 2.76 3.36 3.62 3.29 2.73 2.18 2.66 3.16 3.23 2.85 2.83 3.55 2.83 2.34 1.91 1.64 1.80 2.08 2.00 1.61 1.98 1.54 1.40 1.45 1.15
0.80 1.09 1.46 1.39 1.63 1.56 1.82 2.55 2.46 2.55 2.31 2.60 2.92 2.67 2.72 2.63 2.32 2.30 1.92 2.16 1.13 0.47 0.34 0.31 0.37 0.44 0.45 0.25 0.20 0.25 0.46 1.42 1.45 0.71 0.64 0.60 0.62 0.74 0.85 0.85 0.91 1.11 1.40 1.65 1.44 1.09 1.30 1.44 1.30 1.20 1.01 1.32 1.39 1.93 2.60 3.46 2.16 2.70 2.76 2.72 2.89 3.03 2.98 2.50 2.67 3.29 3.20 3.14 4.08 3.13 2.07 1.22 1.21 1.34 1.29 1.31 1.36 1.52 1.70 1.66 1.40 1.47 1.72 1.66 1.35
0.90 0.83 0.60 0.56 0.69 0.67 0.93 1.50 2.06 1.41 1.86 2.56 2.15 1.34 1.08 1.44 0.94 1.44 1.75 1.72 1.38 0.89 0.71 0.99 0.92 1.06 1.14 0.99 0.88 0.82 1.05 1.32 1.63 1.13 0.47 0.47 0.49 0.69 0.86 0.69 0.63 0.58 0.63 0.74 0.78 0.92 1.30 1.85 1.48 1.41 1.29 1.62 1.60 1.86 1.84 2.76 3.73 2.60 2.31 1.97 1.82 1.65 1.63 1.33 1.26 1.44 1.86 2.01 2.40 2.72 2.30 1.66 1.61 1.47 1.48 1.62 1.73 1.68 1.59 1.96 1.74 1.94 1.71 1.54 1.38
0.87 0.63 0.66 0.81 0.87 0.97 0.88 1.16 1.50 1.32 1.33 1.48 2.00 2.94 3.25 2.43 2.56 2.40 2.27 2.00 1.68 1.90 2.20 2.47 2.51 2.50 2.01 2.18 1.70 1.70 1.75 1.51 1.91 2.33 1.34 1.25 1.13 1.42 1.34 1.11 0.69 0.54 0.56 0.66 0.88 0.90 0.95 1.01 1.47 1.76 1.43 1.07 1.49 1.36 1.13 1.21 2.15 2.48 2.26 1.49 1.57 1.59 1.77 2.25 2.34 2.62 2.35 1.89 1.25 1.26 1.30 1.58 1.43 1.21 1.23 1.36 1.47 1.33 1.51 1.47 1.25 1.40 1.58 1.52 1.46
0.75 0.82 0.66 0.60 0.77 1.06 1.29 1.31 1.81 1.50 1.44 1.42 1.24 1.40 1.46 1.54 1.28 1.03 1.22 1.85 1.94 1.76 1.62 2.12 2.99 2.79 2.90 2.51 2.17 1.93 1.73 1.39 1.89 2.33 2.45 1.44 1.69 1.62 1.48 1.12 0.70 0.79 1.09 1.08 1.20 1.23 1.62 2.06 2.14 1.58 0.98 0.99 0.80 0.94 1.78 0.98 0.78 0.98 1.70 1.49 1.00 0.71 0.64 0.63 0.69 0.77 0.93 1.09 0.97 0.81 0.82 0.99 0.88 1.42 1.33 1.27 1.36 1.24 1.68 1.34 1.57 1.55 0.97 1.37 1.17
0.81 1.08 1.01 1.36 1.78 1.05 0.85 0.72 0.74 1.21 1.84 1.93 1.82 1.73 1.73 1.93 2.23 2.02 1.67 1.31 1.42 2.29 1.88 1.86 1.69 1.30 1.18 1.28 1.35 1.29 1.30 1.25 1.32 1.85 2.81 2.58 1.74 1.11 0.99 1.26 1.09 1.20 1.52 1.36 1.58 1.21 1.27 1.03 1.18 1.63 1.63 1.06 1.01 0.84 0.70 0.90 0.60 0.51 0.67 0.94 1.20 1.00 0.64 0.54 0.55 0.60 0.86 0.69 0.77 0.69 0.58 0.66 0.59 0.71 0.83 0.73 0.70 0.80 0.82 0.60 0.60 0.69 1.05 0.93 0.75
0.37 0.35 0.40 0.50 0.65 0.80 0.65 0.75 0.90 0.99 0.94 0.92 1.14 1.48 1.45 1.45 2.35 3.05 2.18 2.08 1.57 1.21 1.26 1.13 1.01 0.99 0.86 0.90 1.05 1.08 1.07 1.02 1.24 0.95 1.56 2.18 2.08 1.44 0.97 1.02 0.97 0.68 1.04 1.36 1.32 1.41 1.38 1.30 1.12 1.22 1.01 1.11 1.08 0.75 0.80 0.93 0.93 0.77 0.60 0.67 0.60 0.43 0.36 0.30 0.26 0.20 0.36 0.47 0.62 0.62 0.55 0.58 0.60 0.56 0.64 0.54 0.49 0.44 0.41 0.44 0.59 0.52 0.65 0.49 0.55